CZ-6A DEB

Satellite information

Favourite Embed

Satellite Type and Status

DEBRISIN ORBIT

Key statistics

Satellite CZ-6A DEB at a glance.

Uptime

439

Days in orbit

Revolutions

≈ 14.4

Per day

Orbit

LEO

Low Earth Orbit

Inclination

89.3

Latest

Satellite identification and parameters

Extended collection of information and parameters for CZ-6A DEB.

Object identification

Identified? True

Debris? True

Object name: CZ-6A DEB

International designator: 2024-140MH

Object number (NORAD): 60982

Object ID (CCSDS): 60982

Country: PEOPLES REPUBLIC OF CHINA (PRC)

Current information (Y/N): Y

RCS size: SMALL

Orbital parameters

Period: 100.333 minutes

Inclination: 89.2784 deg

SMA: 7152.489 km

Apoapsis: 801.775 km

Periapsis: 746.932 km

RAAN: 315.5152 deg

Eccentricy: 0.00383386

Argument of periapsis: 302.896 deg

Mean anomaly: 56.8552 deg

Mean motion: 14.35215074 rev/day

Mean motion (dot): 0.00008945 rev/day2

B* drag term: 0.0030962705 1/REarth

Two-line elements (TLE)

Creation date: Oct. 19, 2025, 2:20 a.m.

Reference frame: TEME

Reference center: EARTH

Epoch: Oct. 18, 2025, 7:54 p.m. UTC

TLE line 0: 0 CZ-6A DEB

TLE line 1: 1 60982U 24140MH 25291.82931894 .00008945 00000-0 30963-2 0 9998

TLE line 2: 2 60982 89.2784 315.5152 0038339 302.8960 56.8552 14.35215074 60561

Live tracking on map

Real-time ground track for satellite CZ-6A DEB.

In-orbit conjunctions

A list of the most updated potential collisions computed for object CZ-6A DEB.

Target Orbit TCA Probability of collision Miss distance Type
CZ-4C R/B SSO 2025-02-15 03:37:58 0.0001990109 444.0 (m) ROCKET BODY
NOAA 16 DEB SSO 2025-01-20 15:13:41 0.0003274522 497.0 (m) DEBRIS
DELTA 1 DEB SSO 2024-11-18 07:12:55 0.0001464664 279.0 (m) DEBRIS
FENGYUN 1C DEB SSO 2024-09-20 09:10:06 0.0001895032 684.0 (m) DEBRIS

Associated space launch

18 Low Earth Orbit communication satellites with Ku, Q and V band payloads for the G60 constellation operated by Shanghai Spacecom Satellite Technology (SSST) with funding backed by the Shanghai local government. Initial constellation will consist of 1296 satellites by 2027 with long term plans to expand it to 12000 satellites.

CZ-6A DEB was lifted into orbit during the mission ‘Long March 6A | G60 Polar Group 01’, on board a Long March 6A space rocket.

The launch took place on Aug. 6, 2024, 6:42 a.m. from Launch Complex 9A.

For more information about the launch, click the button.

Launch to space Long March 6A | G60 Polar Group 01
Long March 6A | G60 Polar Group 01

Agency: N/A

Status: Launch Successful

Launch date: Aug. 6, 2024, 6:42 a.m. UTC

Rocket: Long March 6A

Launch pad: Launch Complex 9A

Location: Taiyuan Satellite Launch Center, People's Republic of China

...

Latest news about this satellite

News about space launch
Brightness of first Chinese broadband constellation satellites alarms astronomers

The first satellites of a Chinese broadband constellation are significantly brighter than those of Western systems, posing a new challenge for astronomers.

News about space launch
Chinese rocket stage breaks up into cloud of more than 700 pieces of space debris

HELSINKI — A Chinese Long March 6A rocket’s upper stage has fragmented into a cloud of over 700 pieces of space debris, adding to concerns about long-term orbital safety. China […]

News about space launch
China's Thousand Sails Megaconstellation Kicks Off with Dangerous Debris Field

China's Thousand Sails Megaconstellation Kicks Off with Dangerous Debris Field


Newsletter sign-up

Weekly statistics, charts and insights to help you stay on top of the space industry.